Time,TemperatureF,DewpointF,PressureIn,WindDirection,WindDirectionDegrees,WindSpeedMPH,WindSpeedGustMPH,Humidity,HourlyPrecipIn,Conditions,Clouds,dailyrainin,SoftwareType,DateUTC
2013-03-10 00:01:00,50.5,33.1,29.91,ENE,68,3.5,5.8,51,0.00,,---,0.00,VWS V12.08,2013-03-10 05:01:00,
2013-03-10 00:16:00,50.5,33.1,29.90,East,90,4.4,5.5,51,0.00,,---,9.91,VWS V12.08,2013-03-10 05:16:00,
2013-03-10 00:20:00,50.5,33.1,29.90,ENE,68,3.3,8.7,51,0.00,,---,9.91,VWS V12.08,2013-03-10 05:20:00,
2013-03-10 00:32:00,50.5,33.5,29.90,SE,135,4.0,6.2,52,0.00,,---,9.91,VWS V12.08,2013-03-10 05:32:00,
2013-03-10 00:47:00,50.5,33.1,29.90,ENE,68,5.5,6.4,51,0.00,,---,9.91,VWS V12.08,2013-03-10 05:47:00,
2013-03-10 01:00:00,50.7,33.2,29.89,East,90,4.6,8.0,51,0.00,,---,9.91,VWS V12.08,2013-03-10 06:00:00,
2013-03-10 01:11:00,50.7,33.7,29.89,East,90,6.7,7.3,52,0.00,,---,9.91,VWS V12.08,2013-03-10 06:11:00,
2013-03-10 01:20:00,50.7,33.7,29.89,ENE,68,6.2,10.2,52,0.00,,---,9.91,VWS V12.08,2013-03-10 06:20:00,
2013-03-10 01:41:00,50.7,33.7,29.90,East,90,5.3,8.5,52,0.00,,---,9.91,VWS V12.08,2013-03-10 06:41:00,
2013-03-10 03:03:00,50.7,33.7,29.89,ENE,68,3.8,7.8,52,0.00,,---,9.91,VWS V12.08,2013-03-10 07:03:00,
2013-03-10 03:22:00,50.7,33.2,29.90,ESE,112,1.3,6.7,51,0.00,,---,9.91,VWS V12.08,2013-03-10 07:22:00,
2013-03-10 03:41:00,50.7,33.2,29.90,ENE,68,0.0,5.1,51,0.00,,---,9.91,VWS V12.08,2013-03-10 07:41:00,
2013-03-10 04:03:00,50.7,33.7,29.88,ENE,68,5.5,8.7,52,0.00,,---,9.91,VWS V12.08,2013-03-10 08:03:00,
2013-03-10 04:22:00,50.9,33.4,29.88,SE,135,4.0,6.4,51,0.00,,---,9.91,VWS V12.08,2013-03-10 08:22:00,
2013-03-10 04:41:00,50.9,33.4,29.88,ESE,112,2.0,8.0,51,0.00,,---,9.91,VWS V12.08,2013-03-10 08:41:00,
2013-03-10 05:02:00,50.7,33.2,29.87,East,90,6.7,8.2,51,0.00,,---,9.91,VWS V12.08,2013-03-10 09:02:00,
2013-03-10 05:22:00,50.7,33.7,29.88,ENE,68,4.4,6.7,52,0.00,,---,9.91,VWS V12.08,2013-03-10 09:22:00,
2013-03-10 05:37:00,50.5,33.5,29.87,ENE,68,2.4,6.2,52,0.00,,---,9.91,VWS V12.08,2013-03-10 09:37:00,
2013-03-10 05:46:00,50.5,33.5,29.88,East,90,2.9,6.2,52,0.00,,---,9.91,VWS V12.08,2013-03-10 09:46:00,
2013-03-10 06:03:00,50.5,33.5,29.89,ESE,112,3.1,7.1,52,0.00,,---,9.91,VWS V12.08,2013-03-10 10:03:00,
2013-03-10 06:26:00,50.5,33.5,29.90,ENE,68,8.0,8.0,52,0.00,,---,9.91,VWS V12.08,2013-03-10 10:26:00,
2013-03-10 06:31:00,50.3,33.4,29.89,ENE,68,8.7,11.4,52,0.00,,---,9.91,VWS V12.08,2013-03-10 10:31:00,
2013-03-10 06:47:00,50.3,33.4,29.89,ENE,68,3.1,11.4,52,0.00,,---,9.91,VWS V12.08,2013-03-10 10:47:00,
2013-03-10 07:08:00,50.1,33.2,29.89,East,90,4.2,9.6,52,0.00,,---,9.91,VWS V12.08,2013-03-10 11:08:00,
2013-03-10 07:26:00,50.1,33.2,29.91,ESE,112,2.2,8.2,52,0.00,,---,9.91,VWS V12.08,2013-03-10 11:26:00,
2013-03-10 07:31:00,50.1,33.2,29.91,ENE,68,5.3,5.8,52,0.00,,---,9.91,VWS V12.08,2013-03-10 11:31:00,
2013-03-10 07:40:00,50.1,33.2,29.92,ESE,112,0.0,6.4,52,0.00,,---,9.91,VWS V12.08,2013-03-10 11:40:00,
2013-03-10 07:56:00,49.8,32.9,29.90,East,90,1.1,0.0,52,0.00,,---,9.91,VWS V12.08,2013-03-10 11:56:00,
2013-03-10 08:01:00,49.8,32.9,29.90,East,90,1.3,6.7,52,0.00,,---,9.91,VWS V12.08,2013-03-10 12:01:00,
2013-03-10 08:17:00,49.6,32.2,29.91,ENE,68,3.1,6.2,51,0.00,,---,9.91,VWS V12.08,2013-03-10 12:17:00,
2013-03-10 08:20:00,49.6,32.2,29.91,ESE,112,0.0,6.2,51,0.00,,---,9.91,VWS V12.08,2013-03-10 12:20:00,
2013-03-10 08:38:00,49.2,32.3,29.90,ESE,112,0.0,7.1,52,0.00,,---,9.91,VWS V12.08,2013-03-10 12:38:00,
2013-03-10 08:46:00,49.2,32.3,29.90,NE,45,1.5,7.1,52,0.00,,---,9.91,VWS V12.08,2013-03-10 12:46:00,
2013-03-10 09:03:00,49.6,32.7,29.89,ENE,68,17.0,17.0,52,0.00,,---,9.91,VWS V12.08,2013-03-10 13:03:00,
2013-03-10 09:22:00,49.8,32.9,29.91,SE,135,2.0,17.0,52,0.00,,---,9.91,VWS V12.08,2013-03-10 13:22:00,
2013-03-10 09:41:00,50.7,34.2,29.92,NE,45,2.9,6.2,53,0.00,,---,9.91,VWS V12.08,2013-03-10 13:41:00,
2013-03-10 10:01:00,51.6,34.6,29.92,East,90,6.2,9.3,52,0.00,,---,9.91,VWS V12.08,2013-03-10 14:01:00,
2013-03-10 10:17:00,52.7,35.6,29.91,ENE,68,6.4,7.3,52,0.00,,---,9.91,VWS V12.08,2013-03-10 14:17:00,
2013-03-10 10:20:00,52.8,35.7,29.90,East,90,3.5,7.3,52,0.00,,---,9.91,VWS V12.08,2013-03-10 14:20:00,
2013-03-10 10:38:00,53.7,36.0,29.89,ENE,68,6.4,0.0,51,0.00,,---,9.91,VWS V12.08,2013-03-10 14:38:00,
2013-03-10 10:40:00,53.7,36.0,29.89,SE,135,4.6,7.6,51,0.00,,---,9.91,VWS V12.08,2013-03-10 14:40:00,
2013-03-10 10:51:00,53.7,36.0,29.90,ESE,112,4.6,0.0,51,0.00,,---,9.91,VWS V12.08,2013-03-10 14:51:00,
2013-03-10 11:08:00,55.2,37.4,29.90,ENE,68,2.0,10.2,51,0.00,,---,9.91,VWS V12.08,2013-03-10 15:08:00,
2013-03-10 11:16:00,56.4,37.5,29.90,NE,45,6.9,10.7,49,0.00,,---,9.91,VWS V12.08,2013-03-10 15:16:00,
2013-03-10 11:20:00,56.3,37.4,29.90,SSE,158,6.2,10.7,49,0.00,,---,9.91,VWS V12.08,2013-03-10 15:20:00,
2013-03-10 11:33:00,57.0,37.5,29.90,East,90,5.8,6.2,48,0.00,,---,9.91,VWS V12.08,2013-03-10 15:33:00,
2013-03-10 11:40:00,57.9,38.3,29.90,SSE,158,3.1,6.2,48,0.00,,---,9.91,VWS V12.08,2013-03-10 15:40:00,
2013-03-10 11:52:00,58.6,38.5,29.90,East,90,5.1,0.0,47,0.00,,---,9.91,VWS V12.08,2013-03-10 15:52:00,
2013-03-10 12:00:00,58.8,38.6,29.89,ENE,68,11.8,13.4,47,0.00,,---,9.91,VWS V12.08,2013-03-10 16:00:00,
2013-03-10 12:11:00,58.8,38.6,29.88,ENE,68,5.3,11.8,47,0.00,,---,9.91,VWS V12.08,2013-03-10 16:11:00,
2013-03-10 12:20:00,58.8,38.1,29.88,ENE,68,5.5,11.8,46,0.00,,---,9.91,VWS V12.08,2013-03-10 16:20:00,
2013-03-10 12:41:00,58.2,37.5,29.88,ESE,112,3.5,11.1,46,0.00,,---,9.91,VWS V12.08,2013-03-10 16:41:00,
2013-03-10 13:08:00,60.0,39.7,29.87,SE,135,6.7,10.2,47,0.00,,---,9.91,VWS V12.08,2013-03-10 17:08:00,
2013-03-10 13:16:00,61.5,40.0,29.87,East,90,5.3,8.7,45,0.00,,---,9.91,VWS V12.08,2013-03-10 17:16:00,
2013-03-10 13:20:00,61.8,40.3,29.87,SE,135,8.2,8.7,45,0.00,,---,9.91,VWS V12.08,2013-03-10 17:20:00,
2013-03-10 13:32:00,62.2,40.0,29.87,ENE,68,7.6,0.0,44,0.00,,---,9.91,VWS V12.08,2013-03-10 17:32:00,
2013-03-10 13:40:00,62.2,40.0,29.87,East,90,5.1,8.7,44,0.00,,---,9.91,VWS V12.08,2013-03-10 17:40:00,
2013-03-10 13:52:00,62.4,39.6,29.87,ESE,112,3.8,0.0,43,0.00,,---,9.91,VWS V12.08,2013-03-10 17:52:00,
2013-03-10 14:01:00,62.2,39.5,29.87,ESE,112,2.0,10.2,43,0.00,,---,9.91,VWS V12.08,2013-03-10 18:01:00,
2013-03-10 14:16:00,61.7,39.0,29.86,East,90,3.1,6.7,43,0.00,,---,9.91,VWS V12.08,2013-03-10 18:16:00,
2013-03-10 14:20:00,61.8,39.1,29.86,ENE,68,5.3,6.7,43,0.00,,---,9.91,VWS V12.08,2013-03-10 18:20:00,
2013-03-10 14:32:00,61.8,39.1,29.85,ENE,68,6.2,0.0,43,0.00,,---,9.91,VWS V12.08,2013-03-10 18:32:00,
2013-03-10 14:40:00,62.2,39.5,29.85,ESE,112,0.0,10.0,43,0.00,,---,9.91,VWS V12.08,2013-03-10 18:40:00,
2013-03-10 14:52:00,62.6,39.2,29.85,NE,45,4.4,5.8,42,0.00,,---,9.91,VWS V12.08,2013-03-10 18:52:00,
2013-03-10 15:01:00,62.6,38.6,29.84,East,90,4.6,6.2,41,0.00,,---,9.91,VWS V12.08,2013-03-10 19:01:00,
2013-03-10 15:17:00,62.9,38.9,29.83,SE,135,6.9,13.4,41,0.00,,---,9.91,VWS V12.08,2013-03-10 19:17:00,
2013-03-10 15:20:00,63.1,39.0,29.83,NE,45,8.7,13.4,41,0.00,,---,9.91,VWS V12.08,2013-03-10 19:20:00,
2013-03-10 15:38:00,63.6,38.9,29.84,SE,135,4.0,10.7,40,0.00,,---,9.91,VWS V12.08,2013-03-10 19:38:00,
2013-03-10 15:46:00,63.6,39.5,29.83,ESE,112,0.6,10.7,41,0.00,,---,9.91,VWS V12.08,2013-03-10 19:46:00,
2013-03-10 16:03:00,63.6,38.9,29.83,East,90,0.0,8.5,40,0.00,,---,9.91,VWS V12.08,2013-03-10 20:03:00,
2013-03-10 16:26:00,63.8,38.4,29.83,NE,45,12.5,12.5,39,0.00,,---,9.91,VWS V12.08,2013-03-10 20:26:00,
2013-03-10 16:31:00,63.8,38.4,29.83,East,90,6.2,12.5,39,0.00,,---,9.91,VWS V12.08,2013-03-10 20:31:00,
2013-03-10 16:40:00,63.3,38.0,29.82,ESE,112,2.4,12.5,39,0.00,,---,9.91,VWS V12.08,2013-03-10 20:40:00,
2013-03-10 17:01:00,63.1,37.8,29.82,ENE,68,3.5,3.5,39,0.00,,---,9.91,VWS V12.08,2013-03-10 21:01:00,
2013-03-10 17:26:00,63.5,37.5,29.80,ENE,68,6.0,8.7,38,0.00,,---,9.91,VWS V12.08,2013-03-10 21:26:00,
2013-03-10 17:31:00,62.7,36.8,29.79,ENE,68,8.7,8.7,38,0.00,,---,9.91,VWS V12.08,2013-03-10 21:31:00,
2013-03-10 17:47:00,62.4,36.5,29.79,ENE,68,6.4,9.3,38,0.00,,---,9.91,VWS V12.08,2013-03-10 21:47:00,
2013-03-10 18:08:00,62.4,37.1,29.79,ENE,68,4.2,10.5,39,0.00,,---,9.91,VWS V12.08,2013-03-10 22:08:00,
2013-03-10 18:16:00,62.2,37.0,29.79,ESE,112,3.8,11.6,39,0.00,,---,9.91,VWS V12.08,2013-03-10 22:16:00,
2013-03-10 18:20:00,62.2,37.0,29.79,ENE,68,8.2,11.6,39,0.00,,---,9.91,VWS V12.08,2013-03-10 22:20:00,
2013-03-10 18:31:00,61.8,36.6,29.79,ESE,112,5.1,0.0,39,0.00,,---,9.91,VWS V12.08,2013-03-10 22:31:00,
2013-03-10 18:47:00,61.7,36.5,29.78,ENE,68,5.3,8.2,39,0.00,,---,9.91,VWS V12.08,2013-03-10 22:47:00,
2013-03-10 19:08:00,61.3,36.8,29.77,ESE,112,7.6,9.3,40,0.00,,---,9.91,VWS V12.08,2013-03-10 23:08:00,
2013-03-10 19:20:00,60.9,37.1,29.77,East,90,0.0,8.9,41,0.00,,---,9.91,VWS V12.08,2013-03-10 23:20:00,
2013-03-10 19:33:00,60.4,36.6,29.77,East,90,10.9,10.9,41,0.00,,---,9.91,VWS V12.08,2013-03-10 23:33:00,
2013-03-10 19:40:00,60.0,36.2,29.76,ENE,68,5.8,10.9,41,0.00,,---,9.91,VWS V12.08,2013-03-10 23:40:00,
2013-03-10 19:52:00,59.9,36.8,29.77,ENE,68,6.0,10.0,42,0.00,,---,9.91,VWS V12.08,2013-03-10 23:52:00,
2013-03-10 20:01:00,59.7,36.6,29.77,ENE,68,8.0,11.6,42,0.00,,---,9.91,VWS V12.08,2013-03-11 00:01:00,
2013-03-10 20:17:00,59.3,36.8,29.77,ENE,68,6.7,10.0,43,0.00,,---,9.91,VWS V12.08,2013-03-11 00:17:00,
2013-03-10 20:20:00,59.1,36.7,29.77,ENE,68,11.6,11.6,43,0.00,,---,9.91,VWS V12.08,2013-03-11 00:20:00,
2013-03-10 20:38:00,58.8,37.0,29.77,ENE,68,4.6,0.0,44,0.00,,---,9.91,VWS V12.08,2013-03-11 00:38:00,
2013-03-10 20:46:00,58.8,37.5,29.77,ENE,68,7.6,8.7,45,0.00,,---,9.91,VWS V12.08,2013-03-11 00:46:00,
2013-03-10 21:02:00,58.8,38.1,29.77,ENE,68,12.5,12.5,46,0.00,,---,9.91,VWS V12.08,2013-03-11 01:02:00,
2013-03-10 21:20:00,58.8,38.6,29.78,ENE,68,5.5,12.5,47,0.00,,---,9.91,VWS V12.08,2013-03-11 01:20:00,
2013-03-10 21:31:00,58.6,38.5,29.77,North,0,0.0,8.5,47,0.00,,---,9.91,VWS V12.08,2013-03-11 01:31:00,
2013-03-10 21:46:00,58.2,38.6,29.77,ENE,68,5.3,8.9,48,0.00,,---,9.91,VWS V12.08,2013-03-11 01:46:00,
2013-03-10 22:01:00,58.1,39.1,29.77,ESE,112,1.7,11.1,49,0.00,,---,9.91,VWS V12.08,2013-03-11 02:01:00,
2013-03-10 22:20:00,57.9,39.4,29.77,ENE,68,8.2,11.4,50,0.00,,---,9.91,VWS V12.08,2013-03-11 02:20:00,
2013-03-10 22:31:00,57.7,39.2,29.77,East,90,10.0,10.0,50,0.00,,---,9.91,VWS V12.08,2013-03-11 02:31:00,
2013-03-10 22:47:00,57.7,39.7,29.77,East,90,6.0,10.0,51,0.00,,---,9.91,VWS V12.08,2013-03-11 02:47:00,
2013-03-10 23:08:00,57.5,40.0,29.77,ENE,68,7.6,8.2,52,0.00,,---,9.91,VWS V12.08,2013-03-11 03:08:00,
2013-03-10 23:20:00,57.5,40.0,29.78,ENE,68,10.5,10.5,52,0.00,,---,9.91,VWS V12.08,2013-03-11 03:20:00,
2013-03-10 23:33:00,57.5,40.5,29.79,NE,45,1.7,0.0,53,0.00,,---,9.91,VWS V12.08,2013-03-11 03:33:00,
2013-03-10 23:47:00,57.7,40.7,29.79,SSE,158,6.4,10.5,53,0.00,,---,9.91,VWS V12.08,2013-03-11 03:47:00,